Total_Precipitation_Accumulation
0.26 0.25 0.34 0.55 0.65 0.63 0.62 0.68 0.90 0.89 0.81 0.77 0.73 0.75 0.77 0.81 0.79 0.70 0.65 0.66 0.71 0.77 0.78 0.74 0.69 0.74 0.77 0.81 0.92 1.08 1.22 1.19 1.05 0.88 0.75 0.68 0.62 0.54 0.54 0.55 0.56 0.64 0.71 0.73
0.14 0.14 0.22 0.38 0.48 0.50 0.47 0.47 0.56 0.62 0.61 0.52 0.49 0.54 0.55 0.58 0.53 0.49 0.45 0.42 0.42 0.43 0.44 0.43 0.38 0.36 0.37 0.44 0.60 0.84 1.10 1.07 0.86 0.69 0.56 0.52 0.53 0.52 0.49 0.48 0.53 0.58 0.56 0.60
0.16 0.12 0.19 0.40 0.42 0.40 0.41 0.33 0.34 0.40 0.39 0.35 0.39 0.45 0.46 0.52 0.53 0.41 0.33 0.31 0.30 0.30 0.30 0.29 0.27 0.26 0.28 0.35 0.47 0.64 0.75 0.73 0.64 0.53 0.50 0.52 0.54 0.48 0.48 0.48 0.49 0.51 0.49 0.50
0.17 0.19 0.45 0.67 0.57 0.48 0.44 0.27 0.19 0.20 0.23 0.26 0.37 0.40 0.42 0.41 0.42 0.41 0.30 0.22 0.21 0.21 0.21 0.24 0.25 0.29 0.33 0.37 0.41 0.45 0.49 0.51 0.46 0.44 0.45 0.48 0.49 0.47 0.53 0.59 0.56 0.55 0.56 0.55
0.27 0.33 0.53 0.61 0.53 0.52 0.51 0.37 0.18 0.15 0.15 0.15 0.15 0.17 0.20 0.22 0.20 0.20 0.17 0.14 0.13 0.12 0.12 0.14 0.14 0.15 0.16 0.19 0.20 0.20 0.20 0.21 0.23 0.22 0.25 0.27 0.28 0.34 0.45 0.51 0.54 0.57 0.61 0.61
0.32 0.41 0.52 0.42 0.26 0.28 0.41 0.50 0.15 0.09 0.09 0.07 0.06 0.10 0.12 0.13 0.14 0.12 0.09 0.11 0.10 0.08 0.09 0.11 0.11 0.11 0.09 0.09 0.09 0.09 0.09 0.10 0.12 0.13 0.13 0.14 0.17 0.22 0.28 0.28 0.33 0.43 0.46 0.48
0.31 0.50 0.68 0.48 0.28 0.27 0.47 0.48 0.13 0.06 0.05 0.04 0.06 0.06 0.07 0.09 0.12 0.11 0.10 0.10 0.10 0.09 0.09 0.11 0.12 0.11 0.10 0.10 0.09 0.09 0.11 0.13 0.14 0.13 0.13 0.13 0.14 0.17 0.21 0.21 0.25 0.28 0.32 0.38
0.40 0.69 0.88 0.66 0.44 0.40 0.33 0.15 0.07 0.04 0.03 0.03 0.04 0.04 0.05 0.08 0.10 0.10 0.09 0.10 0.10 0.09 0.09 0.11 0.11 0.11 0.10 0.11 0.11 0.10 0.11 0.12 0.14 0.14 0.14 0.13 0.14 0.17 0.20 0.21 0.21 0.22 0.23 0.28
0.35 0.55 0.56 0.49 0.38 0.28 0.22 0.11 0.04 0.03 0.02 0.02 0.03 0.03 0.05 0.07 0.07 0.07 0.08 0.08 0.09 0.10 0.10 0.11 0.11 0.11 0.10 0.11 0.12 0.12 0.12 0.12 0.14 0.16 0.15 0.13 0.15 0.18 0.20 0.22 0.23 0.23 0.25 0.31
0.12 0.17 0.19 0.21 0.20 0.14 0.12 0.08 0.03 0.03 0.03 0.03 0.03 0.03 0.04 0.06 0.08 0.07 0.08 0.08 0.08 0.10 0.11 0.12 0.12 0.12 0.13 0.12 0.12 0.11 0.13 0.14 0.16 0.16 0.16 0.16 0.17 0.18 0.20 0.23 0.25 0.27 0.31 0.35
0.13 0.09 0.07 0.10 0.11 0.10 0.07 0.04 0.02 0.02 0.03 0.04 0.04 0.06 0.05 0.07 0.10 0.10 0.10 0.11 0.13 0.13 0.13 0.12 0.13 0.14 0.16 0.16 0.13 0.12 0.13 0.14 0.14 0.15 0.16 0.17 0.17 0.18 0.19 0.20 0.25 0.33 0.38 0.41
0.14 0.09 0.08 0.09 0.08 0.07 0.05 0.04 0.03 0.02 0.03 0.04 0.04 0.05 0.06 0.06 0.07 0.09 0.10 0.10 0.12 0.14 0.14 0.13 0.12 0.14 0.16 0.18 0.20 0.21 0.18 0.15 0.14 0.14 0.15 0.15 0.16 0.17 0.19 0.20 0.25 0.28 0.28 0.30
0.10 0.08 0.07 0.07 0.07 0.06 0.05 0.04 0.03 0.03 0.04 0.05 0.05 0.06 0.06 0.06 0.06 0.08 0.09 0.09 0.09 0.10 0.11 0.11 0.11 0.10 0.11 0.13 0.14 0.16 0.17 0.17 0.15 0.14 0.14 0.16 0.17 0.18 0.21 0.19 0.17 0.18 0.20 0.22
0.07 0.08 0.09 0.07 0.07 0.06 0.05 0.05 0.05 0.04 0.04 0.05 0.06 0.07 0.07 0.07 0.06 0.06 0.07 0.07 0.08 0.10 0.10 0.10 0.09 0.09 0.10 0.09 0.10 0.11 0.13 0.15 0.16 0.18 0.19 0.20 0.23 0.26 0.29 0.32 0.30 0.23 0.19 0.19
0.06 0.07 0.08 0.07 0.07 0.07 0.07 0.07 0.08 0.07 0.07 0.07 0.07 0.07 0.07 0.07 0.07 0.07 0.07 0.08 0.09 0.10 0.10 0.10 0.09 0.09 0.09 0.09 0.09 0.09 0.10 0.11 0.15 0.22 0.26 0.25 0.27 0.33 0.35 0.30 0.27 0.26 0.24 0.22
0.09 0.08 0.08 0.09 0.10 0.09 0.07 0.07 0.07 0.07 0.07 0.08 0.09 0.10 0.09 0.07 0.07 0.07 0.08 0.09 0.10 0.11 0.11 0.11 0.10 0.10 0.10 0.09 0.09 0.09 0.10 0.14 0.17 0.21 0.25 0.24 0.26 0.29 0.30 0.30 0.29 0.30 0.30 0.30
0.11 0.11 0.12 0.14 0.13 0.10 0.08 0.07 0.07 0.07 0.08 0.09 0.10 0.10 0.10 0.09 0.09 0.09 0.08 0.08 0.09 0.11 0.10 0.09 0.10 0.10 0.10 0.09 0.09 0.10 0.11 0.14 0.17 0.20 0.22 0.22 0.25 0.28 0.30 0.31 0.33 0.34 0.34 0.36
0.13 0.13 0.14 0.16 0.15 0.12 0.10 0.08 0.08 0.08 0.08 0.09 0.10 0.12 0.12 0.12 0.12 0.11 0.10 0.10 0.11 0.11 0.12 0.12 0.12 0.12 0.11 0.11 0.11 0.11 0.13 0.16 0.18 0.22 0.23 0.23 0.26 0.30 0.34 0.34 0.32 0.34 0.35 0.37
0.18 0.17 0.16 0.17 0.16 0.15 0.13 0.11 0.10 0.10 0.10 0.09 0.10 0.12 0.12 0.11 0.11 0.09 0.09 0.11 0.12 0.11 0.11 0.12 0.14 0.12 0.11 0.12 0.14 0.14 0.16 0.19 0.22 0.24 0.25 0.25 0.28 0.32 0.35 0.34 0.33 0.35 0.37 0.38
0.19 0.17 0.16 0.16 0.15 0.14 0.14 0.12 0.11 0.12 0.13 0.12 0.11 0.12 0.13 0.12 0.12 0.12 0.12 0.13 0.13 0.11 0.08 0.10 0.13 0.13 0.13 0.14 0.15 0.16 0.19 0.23 0.27 0.30 0.31 0.31 0.32 0.35 0.37 0.35 0.36 0.39 0.39 0.39
0.15 0.14 0.13 0.13 0.13 0.13 0.13 0.13 0.14 0.14 0.14 0.14 0.13 0.13 0.13 0.12 0.12 0.12 0.13 0.14 0.11 0.09 0.09 0.10 0.10 0.11 0.13 0.17 0.19 0.20 0.22 0.25 0.27 0.30 0.30 0.31 0.33 0.36 0.38 0.37 0.38 0.41 0.41 0.41
0.15 0.13 0.12 0.12 0.11 0.11 0.12 0.12 0.13 0.12 0.13 0.15 0.15 0.14 0.13 0.12 0.11 0.11 0.12 0.12 0.11 0.12 0.12 0.11 0.11 0.13 0.18 0.21 0.18 0.20 0.22 0.24 0.27 0.31 0.33 0.34 0.35 0.37 0.40 0.41 0.42 0.43 0.44 0.47
0.16 0.15 0.14 0.13 0.11 0.11 0.13 0.14 0.12 0.12 0.13 0.13 0.14 0.15 0.15 0.15 0.15 0.13 0.12 0.10 0.11 0.15 0.15 0.15 0.18 0.22 0.28 0.23 0.18 0.19 0.21 0.23 0.25 0.28 0.33 0.38 0.41 0.42 0.45 0.45 0.44 0.45 0.47 0.51
0.18 0.16 0.13 0.13 0.12 0.13 0.16 0.16 0.15 0.14 0.14 0.14 0.14 0.14 0.15 0.17 0.17 0.15 0.15 0.16 0.18 0.20 0.18 0.19 0.24 0.30 0.33 0.26 0.23 0.23 0.25 0.26 0.26 0.26 0.29 0.34 0.39 0.42 0.44 0.46 0.48 0.49 0.48 0.48
0.19 0.17 0.17 0.17 0.19 0.20 0.18 0.18 0.19 0.17 0.17 0.19 0.18 0.16 0.16 0.18 0.20 0.20 0.18 0.18 0.21 0.24 0.23 0.25 0.30 0.34 0.32 0.29 0.29 0.30 0.32 0.34 0.35 0.35 0.34 0.36 0.40 0.45 0.48 0.50 0.54 0.56 0.55 0.52
0.21 0.20 0.22 0.25 0.25 0.23 0.22 0.22 0.21 0.19 0.19 0.20 0.19 0.18 0.18 0.19 0.19 0.19 0.19 0.20 0.21 0.27 0.30 0.30 0.30 0.32 0.33 0.35 0.37 0.36 0.36 0.37 0.38 0.38 0.39 0.43 0.47 0.50 0.55 0.58 0.59 0.63 0.62 0.58
0.22 0.23 0.24 0.24 0.23 0.23 0.24 0.23 0.22 0.20 0.19 0.21 0.21 0.19 0.19 0.21 0.22 0.23 0.23 0.24 0.26 0.30 0.35 0.39 0.38 0.40 0.43 0.43 0.43 0.42 0.43 0.44 0.44 0.44 0.46 0.48 0.51 0.54 0.56 0.61 0.65 0.68 0.70 0.68